FW6055 Weather Reports


time (UTC)temp
C
wind
direction
speed
KPH
gust
KPH
rain 1hr
cm
rain 24hr
cm
rain mn
cm
humidity
%
barometer
mb
20260502170424 8 201 3.2 4.8 0.00 0.00 0.00 46 1018.1
20260502163908 8 283 3.2 4.8 0.00 0.00 0.00 46 1018.4
20260502163404 8 206 3.2 3.2 0.00 0.00 0.00 46 1018.4
20260502162902 8 68 3.2 4.8 0.00 0.00 0.00 46 1018.4
20260502162358 8 81 3.2 4.8 0.00 0.00 0.00 46 1018.4
20260502161855 8 241 3.2 3.2 0.00 0.00 0.00 48 1018.4
20260502161351 7 297 4.8 4.8 0.00 0.00 0.00 47 1018.4
20260502160849 7 4 3.2 3.2 0.00 0.00 0.00 48 1018.4
20260502160347 8 254 3.2 3.2 0.00 0.00 0.00 46 1018.4
20260502152328 8 49 3.2 4.8 0.00 0.00 0.00 49 1018.1
20260502151826 8 138 0.0 1.6 0.00 0.00 0.00 50 1018.4
20260502151322 7 253 3.2 3.2 0.00 0.00 0.00 50 1018.4
20260502150820 6 143 0.0 1.6 0.00 0.00 0.00 54 1018.4
20260502150316 6 75 1.6 1.6 0.00 0.00 0.00 55 1018.4
20260502130704 5 195 1.6 1.6 0.00 0.00 0.00 75 1018.4
20260502130202 5 167 0.0 1.6 0.00 0.00 0.00 77 1018.4
20260502123648 5 196 3.2 3.2 0.00 0.00 0.00 78 1018.4
20260502123145 5 163 0.0 0.0 0.00 0.00 0.00 79 1018.4
20260502122641 5 195 1.6 1.6 0.00 0.00 0.00 79 1018.4
20260502122138 5 193 1.6 1.6 0.00 0.00 0.00 79 1018.4
20260502121636 5 209 1.6 3.2 0.00 0.00 0.00 80 1018.4
20260502121133 4 152 0.0 0.0 0.00 0.00 0.00 82 1018.4
20260502120629 3 191 1.6 1.6 0.00 0.00 0.00 84 1018.4
20260502120126 3 167 0.0 1.6 0.00 0.00 0.00 87 1018.1
20260502115624 3 179 0.0 0.0 0.00 0.00 0.00 88 1018.4
20260502115120 3 130 0.0 1.6 0.00 0.00 0.00 90 1018.4
20260502114616 2 130 0.0 0.0 0.00 0.00 0.00 91 1018.4
20260502114114 2 130 0.0 0.0 0.00 0.00 0.00 91 1018.4
20260502113611 2 130 0.0 0.0 0.00 0.00 0.00 91 1018.1
20260502113109 2 130 0.0 0.0 0.00 0.00 0.00 91 1018.1
20260502112607 2 130 0.0 0.0 0.00 0.00 0.00 91 1018.4
20260502112104 2 130 0.0 0.0 0.00 0.00 0.00 91 1018.1
20260502111601 2 130 0.0 0.0 0.00 0.00 0.00 90 1018.1
20260502111059 2 130 0.0 0.0 0.00 0.00 0.00 90 1018.1
20260502110556 2 130 0.0 0.0 0.00 0.00 0.00 90 1017.8
20260502110054 2 129 0.0 0.0 0.00 0.00 0.00 90 1018.1
20260502105551 2 129 0.0 0.0 0.00 0.00 0.00 89 1018.1
20260502105048 2 129 0.0 0.0 0.00 0.00 0.00 89 1017.8
20260502104545 2 129 0.0 0.0 0.00 0.00 0.00 89 1018.1
20260502104043 2 129 0.0 0.0 0.00 0.00 0.00 88 1017.8
20260502103540 2 129 0.0 0.0 0.00 0.00 0.00 88 1018.1
20260502103038 2 129 0.0 0.0 0.00 0.00 0.00 88 1017.8
20260502102534 2 128 0.0 0.0 0.00 0.00 0.00 87 1017.8
20260502102032 2 128 0.0 0.0 0.00 0.00 0.00 87 1017.8
20260502101529 2 128 0.0 0.0 0.00 0.00 0.00 87 1017.8
20260502101027 2 128 0.0 0.0 0.00 0.00 0.00 87 1017.8
20260502100526 2 128 0.0 0.0 0.00 0.00 0.00 87 1017.8
20260502091500 3 128 0.0 0.0 0.00 0.00 0.00 85 1017.4
20260502090958 3 128 0.0 0.0 0.00 0.00 0.00 85 1017.8
20260502090454 3 128 0.0 0.0 0.00 0.00 0.00 84 1017.4
20260502071349 3 131 0.0 0.0 0.00 0.00 0.00 84 1017.4
20260502070847 3 130 0.0 0.0 0.00 0.00 0.00 83 1017.4
20260502070344 3 129 0.0 0.0 0.00 0.00 0.00 83 1017.4
20260502065843 3 130 0.0 0.0 0.00 0.00 0.00 83 1017.4
20260502065340 3 131 0.0 0.0 0.00 0.00 0.00 83 1017.1
20260502064838 3 130 0.0 0.0 0.00 0.00 0.00 83 1017.4
20260502064336 3 131 0.0 0.0 0.00 0.00 0.00 83 1017.4
20260502063833 3 131 0.0 1.6 0.00 0.00 0.00 83 1017.4
20260502063331 3 140 0.0 0.0 0.00 0.00 0.00 83 1017.8
20260502062828 3 130 0.0 0.0 0.00 0.00 0.00 83 1017.4
20260502062325 3 131 0.0 0.0 0.00 0.00 0.00 83 1017.4
20260502061824 3 142 0.0 0.0 0.00 0.00 0.00 83 1017.8
20260502061322 3 130 0.0 0.0 0.00 0.00 0.00 82 1017.4
20260502060817 3 142 0.0 0.0 0.00 0.00 0.00 82 1017.8
20260502060312 3 142 0.0 0.0 0.00 0.00 0.00 82 1017.8
20260502055810 3 138 0.0 0.0 0.00 0.00 0.00 82 1017.8
20260502055308 3 144 0.0 0.0 0.00 0.00 0.00 82 1017.8
20260502054808 3 144 0.0 0.0 0.00 0.00 0.00 81 1017.8
20260502054305 3 140 0.0 0.0 0.00 0.00 0.00 81 1017.8
20260502053802 3 143 0.0 0.0 0.00 0.00 0.00 82 1017.8
20260502053259 3 167 0.0 0.0 0.00 0.00 0.00 81 1017.8
20260502052757 3 139 0.0 0.0 0.00 0.00 0.00 81 1017.8
20260502052255 4 142 0.0 0.0 0.00 0.00 0.00 81 1017.8
20260502051752 4 144 0.0 0.0 0.00 0.00 0.00 81 1017.8
20260502051251 4 137 0.0 1.6 0.00 0.00 0.00 81 1017.8
20260502050746 4 149 0.0 0.0 0.00 0.00 0.00 80 1017.4
20260502050242 4 166 0.0 0.0 0.00 0.00 0.00 80 1017.8
20260502045740 4 175 1.6 1.6 0.00 0.00 0.00 81 1017.8
20260502045237 4 160 0.0 0.0 0.00 0.00 0.00 80 1017.4
20260502044733 5 148 0.0 1.6 0.00 0.00 0.00 79 1017.4
20260502044230 5 107 1.6 3.2 0.00 0.00 0.00 79 1017.4
20260502043727 5 112 3.2 3.2 0.00 0.00 0.00 78 1017.4
20260502043225 5 122 0.0 1.6 0.00 0.00 0.00 78 1017.4
20260502042724 5 111 1.6 3.2 0.00 0.00 0.00 78 1017.4
20260502042222 5 123 0.0 1.6 0.00 0.00 0.00 78 1017.4
20260502041719 5 28 4.8 4.8 0.00 0.00 0.00 78 1017.4
20260502041216 5 71 1.6 3.2 0.00 0.00 0.00 77 1017.4
20260502040713 5 106 3.2 3.2 0.00 0.00 0.00 77 1017.4
20260502040210 5 120 6.4 6.4 0.00 0.00 0.00 76 1017.1
20260502035706 5 41 4.8 6.4 0.00 0.00 0.00 76 1017.1
20260502035203 5 112 1.6 3.2 0.00 0.00 0.00 75 1017.1
20260502034700 5 109 1.6 1.6 0.00 0.00 0.00 75 1016.8
20260502034159 5 120 1.6 1.6 0.00 0.00 0.00 75 1017.1
20260502033656 5 78 1.6 3.2 0.00 0.00 0.00 75 1016.8
20260502033154 6 93 6.4 9.7 0.00 0.00 0.00 75 1017.1
20260502032650 6 352 4.8 9.7 0.00 0.00 0.00 68 1016.8
20260502032146 6 152 0.0 0.0 0.00 0.00 0.00 63 1016.4
20260502031644 6 165 1.6 3.2 0.00 0.00 0.00 63 1016.4
20260502031142 6 139 0.0 0.0 0.00 0.00 0.00 63 1016.8
20260502030641 7 126 0.0 1.6 0.00 0.00 0.00 63 1016.4
20260502030138 7 136 0.0 1.6 0.00 0.00 0.00 64 1016.4
20260502025635 7 165 0.0 1.6 0.00 0.00 0.00 64 1016.4
20260502025133 7 135 0.0 0.0 0.00 0.00 0.00 65 1016.8
20260502024631 7 150 0.0 0.0 0.00 0.00 0.00 64 1016.4
20260502024129 7 171 0.0 0.0 0.00 0.00 0.00 65 1016.4
20260502023627 7 144 0.0 0.0 0.00 0.00 0.00 64 1016.4
20260502023123 7 211 1.6 3.2 0.00 0.00 0.00 64 1016.8
20260502022620 7 175 0.0 0.0 0.00 0.00 0.00 64 1016.4
20260502022118 7 173 0.0 0.0 0.00 0.00 0.00 64 1016.4
20260502021615 7 192 1.6 1.6 0.00 0.00 0.00 64 1016.8
20260502021111 7 110 1.6 3.2 0.00 0.00 0.00 64 1016.4
20260502020609 7 122 1.6 1.6 0.00 0.00 0.00 63 1016.4
20260502020106 7 189 1.6 3.2 0.00 0.00 0.00 63 1016.1
20260502015604 7 124 1.6 1.6 0.00 0.00 0.00 64 1016.1
20260502015100 7 213 1.6 3.2 0.00 0.00 0.00 63 1016.4
20260502014557 7 219 1.6 3.2 0.00 0.00 0.00 63 1016.4
20260502014054 7 184 0.0 1.6 0.00 0.00 0.00 65 1016.4
20260502013549 7 136 0.0 0.0 0.00 0.00 0.00 65 1016.1
20260502013046 7 139 0.0 0.0 0.00 0.00 0.00 65 1016.1
20260502012543 7 214 1.6 1.6 0.00 0.00 0.00 64 1016.1
20260502012041 7 186 0.0 1.6 0.00 0.00 0.00 65 1016.4
20260502011537 7 153 0.0 1.6 0.00 0.00 0.00 65 1016.1
20260502011034 7 298 1.6 4.8 0.00 0.00 0.00 65 1016.1
20260502010532 7 150 0.0 0.0 0.00 0.00 0.00 65 1016.1
20260502010027 7 117 1.6 1.6 0.00 0.00 0.00 64 1015.6
20260502005525 7 151 0.0 0.0 0.00 0.00 0.00 64 1015.6
20260502005023 7 75 3.2 3.2 0.00 0.00 0.00 64 1015.6
20260502004518 7 153 0.0 1.6 0.00 0.00 0.00 63 1015.6
20260502004015 7 206 1.6 1.6 0.00 0.00 0.00 64 1015.6
20260502003514 7 138 0.0 0.0 0.00 0.00 0.00 64 1015.6
20260502003010 7 143 0.0 0.0 0.00 0.00 0.00 63 1015.6
20260502002507 7 163 1.6 1.6 0.00 0.00 0.00 64 1015.6
20260502002004 7 149 0.0 0.0 0.00 0.00 0.00 63 1015.6
20260502001501 7 173 1.6 1.6 0.00 0.00 0.00 65 1015.6
20260502000959 8 155 0.0 0.0 0.00 0.00 0.00 64 1015.6
20260502000457 7 154 1.6 1.6 0.00 0.00 0.00 63 1015.3
20260501235953 8 112 1.6 3.2 0.00 0.00 0.00 63 1015.3
20260501235449 8 115 0.0 1.6 0.00 0.00 0.00 64 1015.3
20260501234944 8 137 0.0 1.6 0.00 0.00 0.00 64 1015.3
20260501234441 8 112 1.6 1.6 0.00 0.00 0.00 63 1015.0
20260501233940 8 175 1.6 1.6 0.00 0.00 0.00 64 1015.3
20260501233437 8 63 3.2 3.2 0.00 0.00 0.00 64 1015.3
20260501232932 8 113 1.6 1.6 0.00 0.00 0.00 63 1015.3
20260501232430 8 151 0.0 0.0 0.00 0.00 0.00 63 1015.3
20260501231926 8 167 0.0 1.6 0.00 0.00 0.00 63 1015.3
20260501231426 8 47 3.2 4.8 0.00 0.00 0.00 62 1015.0
20260501230923 8 247 1.6 3.2 0.00 0.00 0.00 63 1015.0
20260501230421 8 203 0.0 1.6 0.00 0.00 0.00 62 1015.3
20260501225918 8 297 4.8 4.8 0.00 0.00 0.00 61 1015.0
20260501225416 8 182 1.6 1.6 0.00 0.00 0.00 61 1015.3
20260501224912 8 196 3.2 4.8 0.00 0.00 0.00 60 1015.0
20260501224410 9 175 1.6 1.6 0.00 0.00 0.00 60 1015.0
20260501223906 9 156 0.0 0.0 0.00 0.00 0.00 61 1015.0
20260501223402 9 122 1.6 1.6 0.00 0.00 0.00 59 1015.0
20260501222858 9 2 3.2 4.8 0.00 0.00 0.00 59 1015.0
20260501222355 10 192 1.6 1.6 0.00 0.00 0.00 56 1015.0
20260501221852 10 139 0.0 1.6 0.00 0.00 0.00 56 1014.6
20260501221349 10 109 1.6 1.6 0.00 0.00 0.00 55 1014.6
20260501220847 10 193 1.6 3.2 0.00 0.00 0.00 56 1014.6
20260501220344 10 191 1.6 1.6 0.00 0.00 0.00 57 1014.6
20260501215841 10 65 1.6 3.2 0.00 0.00 0.00 56 1014.6
20260501215337 10 123 1.6 1.6 0.00 0.00 0.00 57 1014.6
20260501214832 10 130 1.6 1.6 0.00 0.00 0.00 59 1014.6
20260501214328 9 122 0.0 1.6 0.00 0.00 0.00 60 1014.6
20260501213819 9 158 0.0 0.0 0.00 0.00 0.00 63 1014.6
20260501213315 9 147 0.0 1.6 0.00 0.00 0.00 60 1014.6
20260501212811 10 151 0.0 0.0 0.00 0.00 0.00 60 1014.6
20260501212308 10 157 0.0 1.6 0.00 0.00 0.00 57 1014.6
20260501211805 10 135 0.0 0.0 0.00 0.00 0.00 56 1014.3
20260501211302 10 64 1.6 3.2 0.00 0.00 0.00 56 1014.3
20260501210759 10 159 1.6 1.6 0.00 0.00 0.00 55 1014.3
20260501210256 10 202 3.2 3.2 0.00 0.00 0.00 54 1013.9
20260501205752 10 189 0.0 1.6 0.00 0.00 0.00 55 1013.9
20260501205249 10 160 1.6 1.6 0.00 0.00 0.00 57 1014.3
20260501204746 10 70 1.6 1.6 0.00 0.00 0.00 56 1014.3
20260501204243 10 219 1.6 3.2 0.00 0.00 0.00 56 1013.9
20260501203739 10 207 1.6 1.6 0.00 0.00 0.00 57 1014.3
20260501203236 10 110 1.6 1.6 0.00 0.00 0.00 59 1013.9
20260501202733 10 67 4.8 6.4 0.00 0.00 0.00 56 1014.3
20260501202230 10 18 3.2 4.8 0.00 0.00 0.00 56 1014.3
20260501201727 10 111 1.6 1.6 0.00 0.00 0.00 54 1013.9
20260501201224 10 63 3.2 3.2 0.00 0.00 0.00 54 1014.3
20260501200721 10 105 1.6 3.2 0.00 0.00 0.00 55 1013.9
20260501200218 10 46 6.4 12.9 0.00 0.00 0.00 54 1013.9
20260501195715 11 47 3.2 9.7 0.00 0.00 0.00 53 1013.9
20260501195211 11 212 1.6 3.2 0.00 0.00 0.00 54 1013.9
20260501194707 10 110 1.6 3.2 0.00 0.00 0.00 53 1013.9
20260501194202 10 125 0.0 1.6 0.00 0.00 0.00 54 1013.9
20260501193659 10 65 1.6 1.6 0.00 0.00 0.00 53 1013.9
20260501193158 10 71 3.2 4.8 0.00 0.00 0.00 53 1013.9
20260501192655 10 147 0.0 0.0 0.00 0.00 0.00 55 1013.9
20260501192152 10 125 3.2 4.8 0.00 0.00 0.00 53 1013.9
20260501191649 10 38 3.2 4.8 0.00 0.00 0.00 50 1013.9
20260501191147 10 209 3.2 3.2 0.00 0.00 0.00 49 1013.9
20260501190643 10 89 1.6 3.2 0.00 0.00 0.00 50 1013.6
20260501190137 10 11 3.2 6.4 0.00 0.00 0.00 50 1013.6
20260501185629 10 129 1.6 1.6 0.00 0.00 0.00 52 1013.9
20260501185124 10 86 3.2 3.2 0.00 0.00 0.00 54 1013.9
20260501184621 10 133 0.0 0.0 0.00 0.00 0.00 54 1013.6
20260501184115 10 149 0.0 0.0 0.00 0.00 0.00 54 1013.6
20260501183613 10 125 0.0 1.6 0.00 0.00 0.00 55 1013.6
20260501183109 10 61 0.0 1.6 0.00 0.00 0.00 54 1013.3
20260501182606 10 216 3.2 4.8 0.00 0.00 0.00 55 1013.6
20260501182103 10 124 3.2 3.2 0.00 0.00 0.00 55 1013.6
20260501181600 10 53 1.6 3.2 0.00 0.00 0.00 55 1013.6
20260501181057 10 180 0.0 0.0 0.00 0.00 0.00 55 1013.6
20260501180555 9 119 0.0 1.6 0.00 0.00 0.00 55 1013.6
20260501180050 9 107 1.6 1.6 0.00 0.00 0.00 56 1013.6
20260501175547 9 13 4.8 6.4 0.00 0.00 0.00 57 1013.6
20260501175044 10 11 4.8 6.4 0.00 0.00 0.00 57 1013.6
20260501174541 10 274 3.2 4.8 0.00 0.00 0.00 57 1013.6
20260501174039 10 113 1.6 1.6 0.00 0.00 0.00 57 1013.6
20260501173536 10 93 1.6 1.6 0.00 0.00 0.00 56 1013.6
20260501173033 10 48 3.2 4.8 0.00 0.00 0.00 57 1013.6
20260501172528 10 7 1.6 1.6 0.00 0.00 0.00 57 1013.6
20260501172024 10 72 3.2 4.8 0.00 0.00 0.00 58 1013.6
20260501171520 10 143 0.0 0.0 0.00 0.00 0.00 58 1013.6